Flag for Slovenia Weather past 2 weeks in Celje, Slovenia

Now
29 °F

Fog.


Feels Like: 29 °F
Forecast: 35 / 51 °F
Wind: 1 mph from Southwest

Location: Celje

Current Time: Feb 27, 2015 at 7:30:18 AM

Latest Report: Feb 27, 2015 at 6:00 AM


Visibility: 6 mi

Pressure: 30.00 "Hg

Humidity: 96%

Dew point: 28 °F

Location of CeljeLocation

Historic Weather in Celje — Graph

°F

Celje temperature yesterday

Maximum temperature yesterday: 53 °F (at 3:00 PM)
Minimum temperature yesterday: 36 °F (at 8:00 AM)
Average temperature yesterday: 45 °F

Past Weeks' High & Low Weather Summary

 TemperatureHumidityPressure
High55 °F (Feb 20, 3:00 PM)97% (Feb 17, 11:00 AM)30.79 "Hg (Feb 17, 11:00 AM)
Low22 °F (Feb 19, 7:00 AM)34% (Feb 20, 4:00 PM)29.65 "Hg (Feb 23, 5:00 PM)
Average37 °F81%30.14 "Hg
* Reported Feb 12 6:00 AM — Feb 27 6:00 AM, Celje, Weather by CustomWeather, © 2015

Note: Actual official high and low records may vary slightly from our data, if they occured in-between our weather recording intervals... More about our weather records

Advertising

Celje weather history for previous 24 hours

 ConditionsComfort  
Time TempWeatherWind HumidityBarometerVisibility
6:00 AM
Fri, Feb 27
29 °FFog.1 mph96%30.00 "Hg6 mi
5:00 AM29 °FClear.No wind95%30.01 "Hg12 mi
2:00 AM32 °FChilly.1 mph92%30.06 "HgN/A
1:00 AM34 °FChilly.1 mph91%30.07 "HgN/A
12:00 AM36 °FChilly.1 mph87%30.07 "HgN/A
11:00 PM
Thu, Feb 26
41 °FQuite cool.1 mph76%30.07 "HgN/A
10:00 PM43 °FQuite cool.1 mph69%30.09 "HgN/A
9:00 PM43 °FQuite cool.1 mph68%30.09 "HgN/A
8:00 PM45 °FCool.2 mph62%30.09 "HgN/A
7:00 PM44 °FOvercast.2 mph64%30.09 "Hg25 mi
6:00 PM44 °FQuite cool.1 mph68%30.07 "HgN/A
5:00 PM49 °FCool.1 mph50%30.06 "HgN/A
4:00 PM51 °FCool.2 mph46%30.06 "HgN/A
3:00 PM53 °FCool.1 mph41%30.06 "HgN/A
2:00 PM51 °FPassing clouds.3 mph45%30.08 "Hg31 mi
1:00 PM52 °FPassing clouds.2 mph43%30.09 "Hg31 mi
12:00 PM50 °FCool.1 mph43%30.11 "HgN/A
11:00 AM48 °FCool.2 mph53%30.13 "HgN/A
10:00 AM43 °FQuite cool.1 mph75%30.14 "HgN/A
9:00 AM38 °FChilly.No wind86%30.15 "HgN/A
8:00 AM36 °FChilly.No wind90%30.15 "HgN/A
Weather by CustomWeather, © 2015

See weather overviewHow to use our weather pages